Location: Drignac
(45.1667°N, 2.0333°E)
Time: 12:50:31
(UTC+00:00)

SJ-11-01 - Pass Details

Date: 29 March 2020
Orbit: 683 x 701 km, 98.0° (Epoch: 03 June)

Event Time Altitude Azimuth Distance (km) Brightness Sun altitude
Rises 18:58:01 0° 161° (SSE) 3,043 7.3 -8.0°
Reaches altitude 10° 19:00:14 10° 161° (SSE) 2,134 6.5 -8.4°
Maximum altitude 19:04:55 79° 75° (ENE) 711 4.3 -9.2°
Drops below altitude 10° 19:09:39 10° 349° (N) 2,162 7.2 -10.0°
Sets 19:11:55 0° 349° (NNW) 3,087 8.0 -10.4°
